TimeEST,TemperatureF,Dew PointF,Humidity,Sea Level PressureIn,VisibilityMPH,Wind Direction,Wind SpeedMPH,Gust SpeedMPH,PrecipitationIn,Events,Conditions,WindDirDegrees,DateUTC
12:54 AM,25.0,21.0,85,29.86,6.0,Calm,Calm,-,N/A,,Clear,0,2014-01-18 05:54:00
1:54 AM,24.1,21.9,91,29.85,5.0,Calm,Calm,-,N/A,,Clear,0,2014-01-18 06:54:00
2:54 AM,24.1,21.0,88,29.85,6.0,Calm,Calm,-,N/A,,Clear,0,2014-01-18 07:54:00
3:54 AM,24.1,21.9,91,29.82,4.0,Calm,Calm,-,N/A,,Clear,0,2014-01-18 08:54:00
4:54 AM,25.0,21.9,88,29.81,5.0,Calm,Calm,-,N/A,,Overcast,0,2014-01-18 09:54:00
5:54 AM,24.1,21.0,88,29.80,5.0,Calm,Calm,-,N/A,,Overcast,0,2014-01-18 10:54:00
6:54 AM,26.1,21.9,84,29.77,7.0,Calm,Calm,-,N/A,,Mostly Cloudy,0,2014-01-18 11:54:00
7:54 AM,27.0,23.0,85,29.74,5.0,Calm,Calm,-,N/A,,Overcast,0,2014-01-18 12:54:00
8:54 AM,28.9,25.0,85,29.76,6.0,Calm,Calm,-,N/A,,Overcast,0,2014-01-18 13:54:00
9:54 AM,32.0,26.1,79,29.75,7.0,ENE,5.8,-,N/A,,Overcast,70,2014-01-18 14:54:00
10:01 AM,32.0,26.6,80,29.71,4.0,ENE,6.9,-,0.00,Snow,Light Snow,60,2014-01-18 15:01:00
10:11 AM,32.0,26.6,80,29.70,2.5,ENE,4.6,-,0.00,Snow,Light Snow,60,2014-01-18 15:11:00
10:18 AM,32.0,26.6,80,29.70,0.8,East,4.6,-,0.00,Snow,Light Snow,80,2014-01-18 15:18:00
10:23 AM,30.2,28.4,93,29.69,0.2,NE,8.1,-,0.01,Fog-Snow,Snow,50,2014-01-18 15:23:00
10:31 AM,30.2,28.4,93,29.69,0.5,NE,5.8,-,0.01,Fog-Snow,Snow,50,2014-01-18 15:31:00
10:37 AM,30.2,28.4,93,29.69,0.2,NE,5.8,-,0.01,Fog-Snow,Snow,50,2014-01-18 15:37:00
10:54 AM,30.9,28.9,92,29.71,0.2,NE,5.8,-,0.02,Fog-Snow,Snow,50,2014-01-18 15:54:00
11:06 AM,30.2,28.4,93,29.66,0.8,NE,5.8,-,0.00,Snow,Light Snow,40,2014-01-18 16:06:00
11:11 AM,30.2,30.2,100,29.66,1.2,NE,4.6,-,0.00,Snow,Light Snow,40,2014-01-18 16:11:00
11:19 AM,30.2,28.4,93,29.65,2.0,NE,5.8,-,0.00,,Overcast,40,2014-01-18 16:19:00
11:28 AM,32.0,30.2,93,29.65,2.5,NNE,5.8,-,0.00,,Overcast,30,2014-01-18 16:28:00
11:35 AM,32.0,28.4,87,29.64,3.0,NNE,4.6,-,0.00,,Overcast,30,2014-01-18 16:35:00
11:54 AM,32.0,30.0,92,29.66,3.0,NE,4.6,-,0.00,,Overcast,40,2014-01-18 16:54:00
12:26 PM,32.0,30.2,93,29.60,4.0,Calm,Calm,-,N/A,,Overcast,0,2014-01-18 17:26:00
12:32 PM,33.8,30.2,87,29.60,1.5,Calm,Calm,-,0.00,Snow,Light Snow,0,2014-01-18 17:32:00
12:42 PM,32.0,28.4,87,29.60,0.5,Calm,Calm,-,0.00,Fog-Snow,Snow,0,2014-01-18 17:42:00
12:48 PM,32.0,30.2,93,29.59,0.2,NNW,3.5,-,0.01,Fog-Snow,Snow,330,2014-01-18 17:48:00
12:54 PM,32.0,30.0,92,29.63,0.2,Calm,Calm,-,0.02,Fog-Snow,Light Snow,0,2014-01-18 17:54:00
1:28 PM,32.0,30.2,93,29.59,0.5,WNW,4.6,-,0.02,Fog-Snow,Light Snow,300,2014-01-18 18:28:00
1:42 PM,32.0,30.2,93,29.58,0.2,WNW,3.5,-,0.03,Fog-Snow,Snow,290,2014-01-18 18:42:00
1:54 PM,30.0,28.9,96,29.63,0.2,NW,4.6,-,0.04,Fog-Snow,Snow,310,2014-01-18 18:54:00
2:06 PM,30.2,28.4,93,29.59,0.5,West,5.8,-,0.01,Fog-Snow,Light Snow,280,2014-01-18 19:06:00
2:16 PM,30.2,28.4,93,29.59,0.8,WNW,5.8,-,0.01,Snow,Light Snow,290,2014-01-18 19:16:00
2:27 PM,30.2,26.6,86,29.59,1.0,WNW,5.8,-,0.01,Snow,Light Snow,290,2014-01-18 19:27:00
2:48 PM,30.2,26.6,86,29.60,0.8,WSW,4.6,-,0.01,Snow,Light Snow,240,2014-01-18 19:48:00
2:54 PM,30.0,27.0,88,29.65,0.8,WSW,8.1,-,0.02,Snow,Light Snow,250,2014-01-18 19:54:00
3:07 PM,30.2,26.6,86,29.60,1.0,West,6.9,-,0.00,Snow,Light Snow,260,2014-01-18 20:07:00
3:33 PM,28.4,26.6,93,29.61,0.8,West,9.2,-,0.00,Snow,Light Snow,260,2014-01-18 20:33:00
3:54 PM,28.9,26.1,89,29.66,1.2,West,8.1,-,0.00,Snow,Light Snow,270,2014-01-18 20:54:00
4:05 PM,28.4,24.8,86,29.63,2.5,West,6.9,-,0.00,Snow,Light Snow,280,2014-01-18 21:05:00
4:22 PM,28.4,24.8,86,29.63,1.5,Variable,5.8,-,0.00,Snow,Light Snow,0,2014-01-18 21:22:00
4:34 PM,28.4,24.8,86,29.64,0.8,West,13.8,-,0.00,Snow,Light Snow,260,2014-01-18 21:34:00
4:41 PM,28.4,24.8,86,29.64,0.8,West,8.1,-,0.00,Snow,Light Snow,280,2014-01-18 21:41:00
4:54 PM,27.0,23.0,85,29.69,1.0,West,9.2,-,0.00,Snow,Light Snow,270,2014-01-18 21:54:00
5:08 PM,26.6,23.0,86,29.65,2.0,West,9.2,-,0.00,Snow,Light Snow,260,2014-01-18 22:08:00
5:47 PM,24.8,21.2,86,29.67,1.5,WSW,10.4,-,0.00,Snow,Light Snow,240,2014-01-18 22:47:00
5:54 PM,25.0,21.0,85,29.72,1.5,West,11.5,-,0.00,Snow,Light Snow,260,2014-01-18 22:54:00
6:08 PM,24.8,19.4,80,29.68,2.5,West,12.7,20.7,0.00,Snow,Light Snow,270,2014-01-18 23:08:00
6:36 PM,24.8,19.4,80,29.68,3.0,WSW,12.7,21.9,0.00,Snow,Light Snow,250,2014-01-18 23:36:00
6:54 PM,24.1,19.9,84,29.73,4.0,West,12.7,21.9,0.00,Snow,Light Snow,280,2014-01-18 23:54:00
7:54 PM,23.0,19.0,85,29.73,5.0,West,15.0,19.6,0.00,,Overcast,280,2014-01-19 00:54:00
8:54 PM,23.0,18.0,81,29.74,8.0,West,9.2,-,N/A,,Overcast,260,2014-01-19 01:54:00
9:54 PM,21.9,18.0,85,29.75,7.0,West,11.5,-,N/A,,Overcast,280,2014-01-19 02:54:00
10:54 PM,21.9,18.0,85,29.74,8.0,West,5.8,19.6,N/A,,Overcast,280,2014-01-19 03:54:00
11:54 PM,21.9,18.0,85,29.75,8.0,West,12.7,-,N/A,,Overcast,280,2014-01-19 04:54:00